HAZ5137 ZSPD-ZSAM

Flight info

Callsign HAZ5137
Flight time 1h 27m
Altitude 37100
Route HSN92D HSN W13 TOGUG/K0850S1160 W13 BEGMO W117 DST B221 LJG A470 ENVEN ENVEN8X
Aircraft A320/M-SDE3FGHIRWY/LB1

Departure

Time 2026-04-30 11:15
Airport Shanghai Pudong International Airport (ZSPD)

Arrival

Time 2026-04-30 12:43
Airport Xiamen Gaoqi International Airport (ZSAM)
Time Latitude Longitude Altitude Speed Heading
2026-04-30 10:30 31.13048 121.80522 23 ft 0 kts 354°
2026-04-30 11:02 31.13039 121.80523 23 ft 4 kts 352°
2026-04-30 11:03 31.13012 121.80529 24 ft 4 kts 342°
2026-04-30 11:03 31.12989 121.80541 26 ft 4 kts 310°
2026-04-30 11:03 31.12983 121.80559 24 ft 0 kts 252°
2026-04-30 11:06 31.12981 121.80551 23 ft 2 kts 252°
2026-04-30 11:06 31.12966 121.80498 23 ft 8 kts 252°
2026-04-30 11:07 31.12949 121.80438 23 ft 7 kts 252°
2026-04-30 11:07 31.12930 121.80385 24 ft 7 kts 231°
2026-04-30 11:07 31.12893 121.80376 23 ft 5 kts 172°
2026-04-30 11:07 31.12859 121.80418 23 ft 11 kts 94°
2026-04-30 11:08 31.12887 121.80527 23 ft 17 kts 72°
2026-04-30 11:08 31.12925 121.80666 23 ft 19 kts 72°
2026-04-30 11:08 31.12968 121.80823 23 ft 21 kts 72°
2026-04-30 11:08 31.13015 121.80992 23 ft 23 kts 72°
2026-04-30 11:09 31.13066 121.81173 24 ft 24 kts 72°
2026-04-30 11:09 31.13115 121.81351 23 ft 23 kts 72°
2026-04-30 11:09 31.13165 121.81530 23 ft 24 kts 72°
2026-04-30 11:09 31.13217 121.81718 23 ft 24 kts 72°
2026-04-30 11:10 31.13260 121.81872 22 ft 6 kts 72°
2026-04-30 11:10 31.13260 121.81873 22 ft 0 kts 72°
2026-04-30 11:11 31.13267 121.81898 24 ft 10 kts 72°
2026-04-30 11:11 31.13221 121.81963 23 ft 13 kts 161°
2026-04-30 11:12 31.13139 121.81995 22 ft 13 kts 162°
2026-04-30 11:12 31.13048 121.82029 22 ft 14 kts 162°
2026-04-30 11:12 31.12941 121.82070 22 ft 18 kts 162°
2026-04-30 11:12 31.12818 121.82116 24 ft 19 kts 162°
2026-04-30 11:13 31.12700 121.82166 23 ft 14 kts 139°
2026-04-30 11:13 31.12705 121.82253 25 ft 0 kts 70°
2026-04-30 11:14 31.12714 121.82284 22 ft 12 kts 70°
2026-04-30 11:14 31.12797 121.82352 21 ft 18 kts 343°
2026-04-30 11:14 31.12928 121.82301 23 ft 27 kts 342°
2026-04-30 11:14 31.13363 121.82138 20 ft 102 kts 342°
2026-04-30 11:15 31.14231 121.81811 26 ft 157 kts 342°
2026-04-30 11:15 31.15336 121.81426 469 ft 166 kts 345°
2026-04-30 11:15 31.16440 121.81037 1074 ft 166 kts 346°
2026-04-30 11:15 31.17590 121.81064 1692 ft 167 kts
2026-04-30 11:16 31.18782 121.81280 2013 ft 183 kts
2026-04-30 11:16 31.20118 121.81540 2185 ft 207 kts
2026-04-30 11:16 31.21630 121.81835 2549 ft 233 kts
2026-04-30 11:16 31.23309 121.82156 2941 ft 253 kts
2026-04-30 11:17 31.25054 121.82488 3005 ft 255 kts
2026-04-30 11:17 31.26782 121.82813 3010 ft 255 kts
2026-04-30 11:17 31.28534 121.83138 3025 ft 256 kts
2026-04-30 11:17 31.30322 121.83466 3750 ft 260 kts
2026-04-30 11:18 31.32096 121.83792 4956 ft 257 kts
2026-04-30 11:18 31.35450 121.85205 7003 ft 266 kts 33°
2026-04-30 11:18 31.36760 121.86793 7840 ft 279 kts 51°
2026-04-30 11:19 31.37588 121.88896 8679 ft 294 kts 71°
2026-04-30 11:19 31.37985 121.91280 9499 ft 304 kts 79°
2026-04-30 11:19 31.37875 121.93761 10223 ft 319 kts 101°
2026-04-30 11:19 31.36970 121.96226 10527 ft 344 kts 126°
2026-04-30 11:20 31.35203 121.98213 10823 ft 364 kts 151°
2026-04-30 11:20 31.32823 121.99372 11048 ft 381 kts 166°
2026-04-30 11:20 31.30258 122.00318 11598 ft 390 kts 167°
2026-04-30 11:20 31.27650 122.01268 12308 ft 395 kts 167°
2026-04-30 11:21 31.25013 122.02233 13054 ft 399 kts 167°
2026-04-30 11:21 31.22353 122.03214 13792 ft 403 kts 167°
2026-04-30 11:21 31.19665 122.04213 14440 ft 407 kts 168°
2026-04-30 11:21 31.17004 122.05278 15055 ft 415 kts 162°
2026-04-30 11:22 31.14412 122.06845 15635 ft 426 kts 153°
2026-04-30 11:22 31.12025 122.08980 16203 ft 439 kts 142°
2026-04-30 11:22 31.09928 122.11616 16815 ft 447 kts 135°
2026-04-30 11:22 31.07891 122.14379 17416 ft 452 kts 136°
2026-04-30 11:23 31.05826 122.17168 17994 ft 457 kts 136°
2026-04-30 11:23 31.03727 122.19982 18546 ft 461 kts 138°
2026-04-30 11:23 30.98839 122.24700 19525 ft 453 kts 158°
2026-04-30 11:24 30.96090 122.26330 20019 ft 446 kts 167°
2026-04-30 11:24 30.93183 122.27512 20529 ft 442 kts 173°
2026-04-30 11:24 30.90240 122.28583 21031 ft 444 kts 173°
2026-04-30 11:25 30.84306 122.30746 21968 ft 450 kts 173°
2026-04-30 11:25 30.81308 122.31846 22419 ft 453 kts 173°
2026-04-30 11:25 30.75266 122.34073 23307 ft 458 kts 174°
2026-04-30 11:26 30.69203 122.36298 24110 ft 460 kts 174°
2026-04-30 11:26 30.66147 122.37421 24524 ft 461 kts 174°
2026-04-30 11:26 30.63088 122.38540 24896 ft 462 kts 175°
2026-04-30 11:27 30.60012 122.39478 25243 ft 451 kts 182°
2026-04-30 11:27 30.56941 122.39904 25509 ft 439 kts 190°
2026-04-30 11:27 30.53925 122.39852 25827 ft 431 kts 195°
2026-04-30 11:27 30.50927 122.39665 26151 ft 432 kts 196°
2026-04-30 11:28 30.44938 122.39303 26779 ft 435 kts 196°
2026-04-30 11:28 30.41912 122.39127 27082 ft 436 kts 196°
2026-04-30 11:28 30.38879 122.38951 27372 ft 437 kts 196°
2026-04-30 11:29 30.35835 122.38776 27650 ft 438 kts 196°
2026-04-30 11:29 30.32782 122.38600 27832 ft 441 kts 196°
2026-04-30 11:29 30.26629 122.38251 28274 ft 444 kts 196°
2026-04-30 11:30 30.20504 122.37906 28847 ft 442 kts 196°
2026-04-30 11:30 30.17433 122.37731 29171 ft 441 kts 196°
2026-04-30 11:30 30.14378 122.37556 29496 ft 439 kts 197°
2026-04-30 11:31 30.11326 122.37381 29822 ft 438 kts 197°
2026-04-30 11:31 30.08281 122.37205 30027 ft 438 kts 197°
2026-04-30 11:31 30.05241 122.37030 30207 ft 437 kts 197°
2026-04-30 11:32 29.99187 122.36684 30235 ft 435 kts 197°
2026-04-30 11:32 29.93153 122.36500 30236 ft 447 kts 189°
2026-04-30 11:33 29.86862 122.37775 30236 ft 463 kts 182°
2026-04-30 11:33 29.83705 122.38523 30241 ft 464 kts 182°
2026-04-30 11:33 29.77374 122.40023 30238 ft 464 kts 182°
2026-04-30 11:34 29.71045 122.41506 30240 ft 464 kts 182°
2026-04-30 11:34 29.64767 122.42965 30237 ft 463 kts 182°
2026-04-30 11:35 29.58445 122.44432 30232 ft 464 kts 182°
2026-04-30 11:35 29.52123 122.45902 30233 ft 464 kts 182°
2026-04-30 11:36 29.45798 122.47373 30238 ft 464 kts 182°
2026-04-30 11:36 29.39469 122.48840 30239 ft 464 kts 182°
2026-04-30 11:37 29.33179 122.50291 30214 ft 464 kts 182°
2026-04-30 11:37 29.26824 122.51753 30250 ft 465 kts 184°
2026-04-30 11:38 29.23670 122.52167 30259 ft 447 kts 192°
2026-04-30 11:38 29.20624 122.52035 30258 ft 430 kts 200°
2026-04-30 11:38 29.17735 122.51409 30258 ft 415 kts 208°
2026-04-30 11:38 29.15054 122.50350 30252 ft 402 kts 216°
2026-04-30 11:39 29.10175 122.47513 30192 ft 396 kts 219°
2026-04-30 11:39 29.05252 122.44608 30224 ft 399 kts 219°
2026-04-30 11:40 29.00308 122.41710 30233 ft 400 kts 219°
2026-04-30 11:40 28.95356 122.38811 30236 ft 400 kts 219°
2026-04-30 11:41 28.90443 122.35927 30243 ft 400 kts 219°
2026-04-30 11:41 28.85476 122.33001 30231 ft 404 kts 219°
2026-04-30 11:42 28.80466 122.30060 30235 ft 405 kts 219°
2026-04-30 11:42 28.75449 122.27125 30238 ft 405 kts 219°
2026-04-30 11:43 28.70457 122.24219 30239 ft 406 kts 219°
2026-04-30 11:43 28.65422 122.21281 30234 ft 410 kts 218°
2026-04-30 11:44 28.60328 122.18301 30237 ft 412 kts 218°
2026-04-30 11:44 28.55218 122.15322 30237 ft 413 kts 218°
2026-04-30 11:45 28.50145 122.12366 30238 ft 412 kts 218°
2026-04-30 11:45 28.45034 122.09393 30216 ft 414 kts 217°
2026-04-30 11:46 28.39887 122.06408 30245 ft 416 kts 218°
2026-04-30 11:46 28.34724 122.03411 30239 ft 417 kts 218°
2026-04-30 11:47 28.29597 122.00435 30237 ft 417 kts 218°
2026-04-30 11:47 28.24426 121.97439 30185 ft 417 kts 217°
2026-04-30 11:48 28.19221 121.94428 30241 ft 422 kts 217°
2026-04-30 11:48 28.13993 121.91407 30246 ft 422 kts 217°
2026-04-30 11:49 28.08799 121.88412 30250 ft 422 kts 217°
2026-04-30 11:49 28.03758 121.85161 30246 ft 408 kts 227°
2026-04-30 11:50 28.00119 121.80463 30233 ft 393 kts 245°
2026-04-30 11:50 27.98257 121.74753 30248 ft 386 kts 259°
2026-04-30 11:51 27.97067 121.68864 30242 ft 387 kts 259°
2026-04-30 11:51 27.95848 121.62942 30238 ft 387 kts 259°
2026-04-30 11:52 27.94621 121.57021 30238 ft 387 kts 259°
2026-04-30 11:52 27.93402 121.51102 30246 ft 386 kts 259°
2026-04-30 11:53 27.92181 121.45185 30241 ft 386 kts 259°
2026-04-30 11:53 27.90967 121.39313 30236 ft 386 kts 259°
2026-04-30 11:54 27.89747 121.33401 30194 ft 386 kts 259°
2026-04-30 11:54 27.88517 121.27472 30208 ft 388 kts 259°
2026-04-30 11:55 27.87277 121.21533 30214 ft 389 kts 259°
2026-04-30 11:55 27.86049 121.15621 30225 ft 389 kts 259°
2026-04-30 11:56 27.84814 121.09666 30217 ft 389 kts 259°
2026-04-30 11:56 27.83573 121.03713 30226 ft 389 kts 259°
2026-04-30 11:57 27.82327 120.97757 30212 ft 390 kts 259°
2026-04-30 11:57 27.81079 120.91798 30225 ft 390 kts 259°
2026-04-30 11:58 27.79832 120.85877 30217 ft 390 kts 259°
2026-04-30 11:58 27.78573 120.79911 30224 ft 391 kts 259°
2026-04-30 11:59 27.77311 120.73909 30214 ft 395 kts 259°
2026-04-30 11:59 27.75999 120.67886 30222 ft 397 kts 256°
2026-04-30 12:00 27.73256 120.62445 30225 ft 413 kts 235°
2026-04-30 12:00 27.71094 120.60247 30230 ft 426 kts 224°
2026-04-30 12:00 27.68588 120.58417 30233 ft 430 kts 221°
2026-04-30 12:01 27.63530 120.54806 30230 ft 431 kts 221°
2026-04-30 12:01 27.58466 120.51182 30240 ft 431 kts 221°
2026-04-30 12:02 27.53439 120.47589 30241 ft 431 kts 221°
2026-04-30 12:02 27.48363 120.43980 30246 ft 431 kts 221°
2026-04-30 12:03 27.40748 120.38571 30243 ft 432 kts 221°
2026-04-30 12:04 27.35664 120.34965 30217 ft 433 kts 220°
2026-04-30 12:04 27.30585 120.31362 30221 ft 435 kts 220°
2026-04-30 12:05 27.26295 120.28331 30242 ft 435 kts 220°
2026-04-30 12:05 27.20345 120.24129 30244 ft 435 kts 220°
2026-04-30 12:06 27.15229 120.20523 30242 ft 434 kts 220°
2026-04-30 12:06 27.10104 120.16907 30236 ft 436 kts 220°
2026-04-30 12:07 27.05026 120.13289 30242 ft 435 kts 220°
2026-04-30 12:07 26.99906 120.09643 30241 ft 436 kts 220°
2026-04-30 12:08 26.94776 120.06000 30238 ft 437 kts 220°
2026-04-30 12:08 26.89633 120.02366 30212 ft 437 kts 219°
2026-04-30 12:09 26.84521 119.98754 30214 ft 438 kts 219°
2026-04-30 12:09 26.80206 119.95699 30212 ft 438 kts 219°
2026-04-30 12:10 26.75080 119.92081 30223 ft 439 kts 219°
2026-04-30 12:10 26.69917 119.88444 30229 ft 439 kts 220°
2026-04-30 12:11 26.64755 119.84811 30214 ft 438 kts 219°
2026-04-30 12:11 26.58766 119.80594 30228 ft 438 kts 219°
2026-04-30 12:12 26.54481 119.77582 30222 ft 438 kts 219°
2026-04-30 12:12 26.49321 119.73964 30219 ft 438 kts 219°
2026-04-30 12:13 26.44154 119.70346 30188 ft 438 kts 218°
2026-04-30 12:13 26.38989 119.66727 30201 ft 438 kts 218°
2026-04-30 12:14 26.33826 119.63106 30206 ft 439 kts 218°
2026-04-30 12:14 26.28687 119.59511 30206 ft 439 kts 218°
2026-04-30 12:15 26.23506 119.55909 30185 ft 441 kts 216°
2026-04-30 12:15 26.17730 119.53367 30205 ft 452 kts 204°
2026-04-30 12:16 26.11717 119.51321 30198 ft 452 kts 204°
2026-04-30 12:16 26.05736 119.49281 30196 ft 453 kts 204°
2026-04-30 12:17 25.96682 119.46202 30194 ft 454 kts 202°
2026-04-30 12:17 25.89666 119.43818 30204 ft 454 kts 202°
2026-04-30 12:18 25.84609 119.42097 30208 ft 454 kts 202°
2026-04-30 12:18 25.78607 119.40061 30205 ft 453 kts 204°
2026-04-30 12:19 25.73097 119.36941 30189 ft 441 kts 221°
2026-04-30 12:19 25.68716 119.32285 30197 ft 436 kts 230°
2026-04-30 12:20 25.64581 119.27416 30197 ft 437 kts 230°
2026-04-30 12:20 25.60408 119.22524 30212 ft 437 kts 230°
2026-04-30 12:21 25.56228 119.17632 30210 ft 437 kts 230°
2026-04-30 12:21 25.52051 119.12738 30211 ft 438 kts 230°
2026-04-30 12:22 25.47861 119.07834 30200 ft 439 kts 230°
2026-04-30 12:22 25.43695 119.02951 30200 ft 439 kts 230°
2026-04-30 12:23 25.39494 118.98036 30204 ft 440 kts 230°
2026-04-30 12:23 25.35276 118.93124 30217 ft 440 kts 230°
2026-04-30 12:24 25.31090 118.88187 30221 ft 440 kts 230°
2026-04-30 12:24 25.27005 118.83220 30217 ft 440 kts 231°
2026-04-30 12:25 25.22900 118.78206 30218 ft 440 kts 231°
2026-04-30 12:25 25.18776 118.73210 30207 ft 440 kts 230°
2026-04-30 12:26 25.14642 118.68233 30208 ft 440 kts 230°
2026-04-30 12:26 25.10506 118.63253 30207 ft 440 kts 230°
2026-04-30 12:27 25.06363 118.58337 30056 ft 441 kts 229°
2026-04-30 12:27 25.04243 118.55895 28915 ft 437 kts 229°
2026-04-30 12:27 25.02158 118.53522 27738 ft 426 kts 229°
2026-04-30 12:28 25.00115 118.51197 26637 ft 421 kts 229°
2026-04-30 12:28 24.98071 118.48865 25576 ft 425 kts 230°
2026-04-30 12:28 24.96013 118.46508 24543 ft 429 kts 230°
2026-04-30 12:28 24.93938 118.44132 23513 ft 431 kts 230°
2026-04-30 12:29 24.91867 118.41763 22341 ft 427 kts 229°
2026-04-30 12:29 24.89848 118.39454 21237 ft 421 kts 230°
2026-04-30 12:29 24.87831 118.37146 20184 ft 417 kts 229°
2026-04-30 12:29 24.85807 118.34832 19149 ft 422 kts 229°
2026-04-30 12:30 24.83762 118.32497 18111 ft 426 kts 229°
2026-04-30 12:30 24.81694 118.30142 16959 ft 429 kts 228°
2026-04-30 12:30 24.79617 118.27778 15954 ft 430 kts 228°
2026-04-30 12:30 24.77586 118.25471 14758 ft 414 kts 228°
2026-04-30 12:31 24.75607 118.23220 13856 ft 399 kts 228°
2026-04-30 12:31 24.73751 118.21112 13534 ft 368 kts 228°
2026-04-30 12:31 24.72041 118.19172 13348 ft 338 kts 228°
2026-04-30 12:31 24.70490 118.17415 13165 ft 313 kts 228°
2026-04-30 12:32 24.69005 118.15728 12638 ft 303 kts 229°
2026-04-30 12:32 24.67550 118.14070 11981 ft 298 kts 228°
2026-04-30 12:32 24.66123 118.12440 11308 ft 295 kts 228°
2026-04-30 12:32 24.64703 118.10820 10633 ft 293 kts 228°
2026-04-30 12:33 24.63304 118.09228 10256 ft 285 kts 228°
2026-04-30 12:33 24.61922 118.07659 10180 ft 286 kts 228°
2026-04-30 12:33 24.60535 118.06086 10071 ft 287 kts 227°
2026-04-30 12:33 24.59155 118.04519 9516 ft 292 kts 227°
2026-04-30 12:34 24.57748 118.02922 9141 ft 288 kts 227°
2026-04-30 12:34 24.56357 118.01345 8719 ft 287 kts 227°
2026-04-30 12:34 24.55002 117.99752 8321 ft 284 kts 229°
2026-04-30 12:34 24.53684 117.98154 7849 ft 279 kts 229°
2026-04-30 12:35 24.52394 117.96574 7144 ft 277 kts 229°
2026-04-30 12:35 24.51120 117.95005 6467 ft 274 kts 230°
2026-04-30 12:35 24.49875 117.93477 6038 ft 262 kts 229°
2026-04-30 12:35 24.48680 117.92017 5872 ft 251 kts 229°
2026-04-30 12:36 24.47465 117.90708 5751 ft 240 kts 214°
2026-04-30 12:36 24.45937 117.90147 5641 ft 230 kts 183°
2026-04-30 12:36 24.44376 117.90505 5129 ft 235 kts 150°
2026-04-30 12:36 24.43079 117.91553 4596 ft 234 kts 141°
2026-04-30 12:37 24.41950 117.92746 4350 ft 219 kts 118°
2026-04-30 12:37 24.41617 117.94275 4193 ft 201 kts 82°
2026-04-30 12:37 24.42133 117.95641 3854 ft 193 kts 51°
2026-04-30 12:37 24.42965 117.96796 3457 ft 192 kts 50°
2026-04-30 12:38 24.43779 117.97919 3117 ft 184 kts 51°
2026-04-30 12:38 24.44552 117.98992 2857 ft 174 kts 51°
2026-04-30 12:38 24.45270 117.99993 2633 ft 164 kts 52°
2026-04-30 12:38 24.45956 118.00950 2425 ft 153 kts 52°
2026-04-30 12:39 24.46592 118.01836 2232 ft 144 kts 53°
2026-04-30 12:39 24.47190 118.02671 2046 ft 138 kts 53°
2026-04-30 12:39 24.47777 118.03490 1862 ft 136 kts 53°
2026-04-30 12:39 24.48356 118.04298 1683 ft 134 kts 53°
2026-04-30 12:40 24.48934 118.05106 1495 ft 134 kts 53°
2026-04-30 12:40 24.49509 118.05909 1317 ft 134 kts 53°
2026-04-30 12:40 24.50082 118.06710 1148 ft 132 kts 52°
2026-04-30 12:40 24.50638 118.07486 972 ft 128 kts 52°
2026-04-30 12:41 24.51186 118.08251 806 ft 126 kts 53°
2026-04-30 12:41 24.51733 118.09012 649 ft 126 kts 53°
2026-04-30 12:41 24.52278 118.09775 515 ft 128 kts 53°
2026-04-30 12:41 24.52823 118.10536 333 ft 125 kts 55°
2026-04-30 12:42 24.53354 118.11279 147 ft 126 kts 54°
2026-04-30 12:42 24.53860 118.12003 53 ft 102 kts 52°
2026-04-30 12:42 24.54196 118.12464 56 ft 56 kts 51°
2026-04-30 12:42 24.54423 118.12784 51 ft 51 kts 52°
2026-04-30 12:43 24.54517 118.13006 52 ft 25 kts 82°
2026-04-30 12:43 24.54532 118.13128 52 ft 1 kts 118°
2026-04-30 12:44 24.54531 118.13128 52 ft 0 kts 120°
2026-04-30 12:44 24.54513 118.13149 49 ft 7 kts 146°
2026-04-30 12:44 24.54444 118.13162 52 ft 13 kts 146°
2026-04-30 12:45 24.54372 118.13119 53 ft 16 kts 231°
2026-04-30 12:45 24.54292 118.13005 54 ft 22 kts 233°
2026-04-30 12:45 24.54195 118.12865 55 ft 23 kts 235°
2026-04-30 12:45 24.54131 118.12844 51 ft 9 kts 143°
2026-04-30 12:46 24.54079 118.12844 54 ft 7 kts 221°
2026-04-30 12:46 24.54049 118.12802 54 ft 7 kts 233°
2026-04-30 12:46 24.54024 118.12765 56 ft 6 kts 233°
2026-04-30 12:46 24.53999 118.12736 55 ft 5 kts 215°
2026-04-30 12:47 24.53973 118.12736 51 ft 3 kts 156°
2026-04-30 12:47 24.53955 118.12750 55 ft 3 kts 143°
2026-04-30 12:47 24.53941 118.12762 52 ft 2 kts 143°
2026-04-30 12:47 24.53930 118.12772 54 ft 2 kts 142°
2026-04-30 12:48 24.53927 118.12774 54 ft 0 kts 142°